Content
SEND FEEDBACK

Daily
Averages
Monthly
Summary
United States of America

MINDEN, LOUISIANA


Home > North America > United States > Louisiana
Elevation: 221 feet     Latitude: 32 35N     Longitude: 093 17W

WEATHER
 
SELECT A DAY
Number of Records: 65,717;   Date Range: 7/19/11 - 8/25/14
 
SHARE

PRINT THIS DATA

[ ← Previous Day ]
WEATHER ALMANAC - FEBRUARY 13, 2013
[ Next Day → ]
[ °C ]   °F
Weather ElementAverageHighLow
Temperature44.5 °F51.4 °F (4:15 pm)35.1 °F (10:55 pm)
Dewpoint38 °F44.6 °F (12:35 am)33.6 °F (10:55 pm)
Humidity79 %95 % (11:15 pm)57 % (4:15 pm)
Barometer30.04 in30.12 in (10:55 am)29.90 in (12:35 am)
Wind Speed5.6 mph12.7 mph (12:55 am)
Wind Gust19.6 mph (6:55 am)
Weather ElementAverage
Visibility9.9 mi
Wind DirectionSW (228.1 °)

Weather ElementTotal
Precipitation---
Heating Degree Days21.8 (Base 65)
Averaged from 69 records on February 13, 2013
WEATHER CONDITIONS BREAKOUT
WIND DIRECTION BREAKOUT
WEATHER BY HOUR - FEBRUARY 13, 2013
[ °C ]   °F
Local TimeTemperatureDewpointHumidityBarometerVisibilityWind DirectionWind SpeedGust SpeedPrecipitationEventsConditions
12:35 AM46.4 °F44.6 °F93 %29.90 in10.0 miNW (310°)6.9 mphOvercast
12:55 AM46.4 °F43.9 °F91 %29.90 in10.0 miWNW (290°)12.7 mph18.4 mphOvercast
1:15 AM46.4 °F43.5 °F90 %29.91 in10.0 miWNW (300°)8.1 mph16.1 mphOvercast
1:35 AM46.2 °F43.2 °F89 %29.92 in10.0 miWest (280°)9.2 mphOvercast
1:55 AM45.9 °F42.8 °F89 %29.92 in10.0 miWNW (300°)6.9 mphOvercast
2:15 AM45.7 °F42.8 °F90 %29.92 in10.0 miWNW (290°)8.1 mphOvercast
2:35 AM45.5 °F42.3 °F88 %29.93 in10.0 miWNW (290°)8.1 mphOvercast
2:55 AM45.5 °F42.3 °F88 %29.95 in10.0 miWNW (290°)9.2 mphOvercast
3:15 AM45.5 °F41.9 °F87 %29.95 in10.0 miWest (280°)5.8 mphOvercast
3:35 AM45.0 °F41.2 °F87 %29.96 in10.0 miWNW (290°)6.9 mphOvercast
3:55 AM44.8 °F41.0 °F87 %29.96 in10.0 miWest (280°)6.9 mphOvercast
4:15 AM44.6 °F41.0 °F87 %29.97 in10.0 miWNW (300°)8.1 mphOvercast
4:35 AM44.6 °F40.8 °F87 %29.99 in10.0 miWest (270°)4.6 mphOvercast
4:55 AM44.2 °F40.6 °F87 %30.00 in10.0 miWest (260°)4.6 mphOvercast
5:15 AM44.2 °F40.8 °F88 %30.01 in10.0 miWest (260°)5.8 mphOvercast
5:35 AM44.2 °F40.8 °F88 %30.00 in10.0 miWest (270°)9.2 mphOvercast
5:55 AM44.1 °F40.5 °F87 %30.00 in10.0 miWest (270°)4.6 mphOvercast
6:15 AM44.1 °F39.9 °F85 %30.01 in10.0 miWNW (290°)10.4 mphOvercast
6:35 AM43.7 °F39.2 °F84 %30.02 in10.0 miWNW (300°)10.4 mph16.1 mphOvercast
6:55 AM43.0 °F38.5 °F84 %30.03 in10.0 miWNW (300°)11.5 mph19.6 mphOvercast
7:15 AM42.8 °F38.1 °F84 %30.04 in10.0 miWNW (290°)8.1 mph17.3 mphOvercast
7:35 AM42.8 °F37.2 °F81 %30.06 in10.0 miWNW (290°)8.1 mphOvercast
7:55 AM42.6 °F36.9 °F80 %30.06 in10.0 miNW (310°)5.8 mphOvercast
8:15 AM42.8 °F36.9 °F80 %30.07 in10.0 miNW (310°)6.9 mphOvercast
8:35 AM43.0 °F36.9 °F79 %30.08 in10.0 miWNW (300°)5.8 mphOvercast
8:55 AM43.3 °F36.9 °F78 %30.09 in10.0 miWNW (290°)8.1 mphOvercast
9:15 AM43.5 °F35.8 °F74 %30.11 in10.0 miNNW (340°)8.1 mph16.1 mphOvercast
9:35 AM44.1 °F36.7 °F75 %30.11 in10.0 miNNW (330°)8.1 mphOvercast
9:55 AM44.6 °F36.7 °F74 %30.11 in10.0 miNNW (330°)10.4 mphOvercast
10:15 AM44.6 °F37.0 °F75 %30.11 in10.0 miNW (320°)8.1 mphOvercast
10:55 AM45.7 °F37.4 °F73 %30.12 in10.0 miWNW (300°)4.6 mphOvercast
11:15 AM46.6 °F37.8 °F71 %30.11 in10.0 miNNW (330°)10.4 mphOvercast
11:35 AM47.7 °F37.6 °F68 %30.11 in10.0 miNNW (340°)5.8 mphOvercast
11:55 AM49.3 °F37.2 °F63 %30.10 in10.0 miNW (320°)11.5 mphOvercast
12:15 PM49.3 °F37.0 °F63 %30.09 in10.0 miNW (320°)9.2 mphOvercast
12:35 PM50.7 °F38.5 °F63 %30.08 in10.0 miNNW (340°)4.6 mphOvercast
12:55 PM48.9 °F37.6 °F65 %30.08 in10.0 miWest (280°)5.8 mphOvercast
1:15 PM49.6 °F37.4 °F63 %30.07 in10.0 miWest (280°)6.9 mphOvercast
1:35 PM49.5 °F37.8 °F64 %30.06 in10.0 miWest (260°)5.8 mphOvercast
1:55 PM50.0 °F37.4 °F62 %30.05 in10.0 miWNW (300°)4.6 mphOvercast
2:15 PM50.9 °F36.5 °F58 %30.04 in10.0 miWest (270°)4.6 mphOvercast
2:35 PM50.9 °F37.9 °F61 %30.04 in10.0 miNW (320°)8.1 mphOvercast
2:55 PM50.5 °F37.4 °F61 %30.05 in10.0 miNW (320°)6.9 mphOvercast
3:15 PM50.5 °F37.8 °F62 %30.05 in10.0 miWNW (300°)6.9 mphOvercast
3:35 PM50.2 °F37.4 °F62 %30.05 in10.0 miWNW (300°)8.1 mphOvercast
3:55 PM50.5 °F37.4 °F61 %30.05 in10.0 miWNW (290°)6.9 mphMostly Cloudy
4:15 PM51.4 °F36.7 °F57 %30.05 in10.0 miWNW (290°)6.9 mphScattered Clouds
4:35 PM50.9 °F37.2 °F59 %30.05 in10.0 miWest (270°)8.1 mphMostly Cloudy
4:55 PM48.7 °F36.9 °F64 %30.06 in10.0 miNW (320°)5.8 mphMostly Cloudy
5:15 PM47.3 °F36.9 °F67 %30.06 in10.0 miNW (310°)4.6 mphScattered Clouds
5:35 PM47.3 °F36.9 °F67 %30.07 in10.0 miWNW (300°)4.6 mphClear
5:55 PM46.2 °F36.5 °F69 %30.07 in10.0 miWNW (290°)3.5 mphClear
6:15 PM45.1 °F36.9 °F73 %30.06 in10.0 miWest (260°)3.5 mphClear
6:35 PM44.6 °F37.2 °F75 %30.06 in10.0 miCalmClear
6:55 PM42.4 °F37.2 °F82 %30.07 in10.0 miCalmClear
7:15 PM41.4 °F37.0 °F85 %30.07 in10.0 miCalmClear
7:35 PM40.1 °F36.5 °F87 %30.07 in10.0 miCalmClear
7:55 PM39.2 °F36.5 °F90 %30.07 in10.0 miCalmClear
8:15 PM39.0 °F36.3 °F90 %30.07 in10.0 miCalmClear
8:55 PM39.0 °F35.8 °F88 %30.08 in10.0 miCalmClear
9:15 PM37.6 °F35.2 °F91 %30.09 in10.0 miCalmClear
9:35 PM36.9 °F35.1 °F93 %30.09 in10.0 miCalmClear
9:55 PM36.7 °F34.9 °F93 %30.09 in10.0 miCalmClear
10:15 PM35.6 °F34.0 °F94 %30.10 in10.0 miCalmClear
10:35 PM35.6 °F34.0 °F94 %30.10 in10.0 miCalmClear
10:55 PM35.1 °F33.6 °F94 %30.10 in10.0 miCalmClear
11:15 PM35.1 °F33.8 °F95 %30.10 in7.0 miCalmClear
11:35 PM35.2 °F34.0 °F95 %30.09 in7.0 miCalmClear
11:55 PM35.2 °F33.8 °F94 %30.10 in10.0 miCalmClear
Hourly data recorded from KMNE, located miles away from Minden, Louisiana







STORIES FROM OUR PARTNERS